Regional Weather Roundup
Issued by NWS

Home | Current Version | Previous Version | Text Only | Print | Product List | Glossary Off
Versions: 1 2 3 4 5 6 7 8 9 10 11 12 13 14 15 16 17 18 19 20 21 22 23 24 25 26 27 28 29 30 31 32 33 34 35 36 37 38 39 40 41 42 43 44 45 46 47 48 49 50

000
ASUS43 KMPX 101510
RWRMN
WEATHER ROUNDUP FOR MINNESOTA
NATIONAL WEATHER SERVICE TWIN CITIES/CHANHASSEN MN
900 AM CST SAT DEC 10 2016


NOTE: "FAIR" INDICATES FEW OR NO CLOUDS BELOW 12,000 FEET WITH NO
SIGNIFICANT WEATHER AND/OR OBSTRUCTIONS TO VISIBILITY. N/A MEANS
CURRENT SKY AND/OR WEATHER CONDITIONS ARE NOT AVAILABLE.

MNZ060>063-068>070-101600-
   Twin Cities Metro

CITY           SKY/WX    TMP DP  RH WIND       PRES   REMARKS
TWIN CITIES    CLOUDY     6   0  76 N3        30.48F
ST PAUL        PTSUNNY    6   0  76 NW5       30.50F WCI  -3
CRYSTAL        CLOUDY     5  -2  72 NW5       30.47F WCI  -4
BLAINE         MOCLDY     5   1  85 NW5       30.45F WCI  -4
LAKEVILLE        N/A      3   1  92 CALM      30.46S
EDEN PRAIRIE   PTCLDY     7   1  76 CALM      30.46F
SOUTH ST PAUL  CLOUDY     7   1  78 CALM      30.48F
LAKE ELMO      FAIR       7   1  78 N3        30.47F
$$
MNZ001>005-007-008-013>017-022>024-027-028-101600-
   Northwest Minnesota

CITY           SKY/WX    TMP DP  RH WIND       PRES   REMARKS
BEMIDJI        CLOUDY   -14 -18  80 CALM      30.40F FOG
HALLOCK        CLOUDY   -13 -18  77 CALM      30.47F
ROSEAU         HAZE      -9 -15  77 W3        30.44F VSB 1/2
WARROAD        CLOUDY   -11 -17  77 W3        30.43S
THIEF RVR FALL FLURRIES  -5  -9  83 CALM      30.45F
CROOKSTON      CLOUDY    -4  -8  84 CALM      30.48S
FOSSTON        CLOUDY   -13 -17  84 CALM      30.42F
DETROIT LAKES  CLOUDY   -11 -15  84 CALM      30.41F
MOORHEAD       CLOUDY    -9 -15  77 CALM      30.46F
PARK RAPIDS    CLOUDY   -14 -20  74 CALM      30.39F
$$
MNZ006-009>011-018-025>026-101600-
   North Central Minnesota

CITY           SKY/WX    TMP DP  RH WIND       PRES   REMARKS
BAUDETTE       PTCLDY   -12 -16  82 CALM      30.40F
FLAG ISLAND    CLOUDY    -8 -11  84 W7        30.41F WCI -22
INTL FALLS     CLOUDY    -9 -13  83 CALM      30.41S
WASKISH        CLOUDY    -6  -9  84 CALM      30.41F
BIG FORK       CLOUDY   -13 -18  77 CALM      30.41S
LONGVILLE      CLOUDY     0  -8  71 CALM      30.41F
GRAND RAPIDS   LGT SNOW  -1  -7  75 NW7       30.42F WCI -14
CRANE LAKE     PTCLDY    -9 -13  84 CALM      30.43S
ORR            PTCLDY   -11 -17  77 CALM      30.37S
COOK           PTCLDY    -9 -15  77 CALM      30.40S
$$
MNZ012-019>021-037-101600-
   Northeast Minnesota

CITY           SKY/WX    TMP DP  RH WIND       PRES   REMARKS
DULUTH         CLOUDY     1  -5  75 NW9       30.40S WCI -14
ELY            PTCLDY    -8 -11  84 SW3       30.38S
HIBBING        CLEAR     -9 -12  87 CALM      30.41S
EVELETH        CLEAR     -2  -8  74 W7        30.41S WCI -15
DULUTH HARBOR  CLOUDY     7  -2  66 CALM      30.49S
TWO HARBORS    CLEAR      1  -6  71 CALM      30.42R
SILVER BAY     CLEAR      0  -8  71 CALM      30.40S
GRAND MARAIS     N/A      8  -2  63 NW8       30.44F WCI  -4
G MARAIS ARPRT CLEAR     -2  -9  71 W3        30.30S
$$
MNZ029>031-032-039>041-046>048-054>057-064-101600-
   West Central Minnesota

CITY           SKY/WX    TMP DP  RH WIND       PRES   REMARKS
FERGUS FALLS   CLOUDY    -9 -15  77 CALM      30.49F
WHEATON        CLOUDY    -4  -9  77 CALM      30.46F
MORRIS         CLOUDY    -6  -9  84 CALM      30.42F
ALEXANDRIA     CLOUDY    -4  -8  83 NE3       30.39F
ELBOW LAKE     CLOUDY    -8 -11  85 NE6       30.42F WCI -21
WADENA         CLOUDY    -8  -9  92 CALM      30.40F
GLENWOOD       CLOUDY    -4  -8  84 CALM      30.41S
APPLETON       CLOUDY    -2  -8  78 CALM      30.45F
BENSON         CLOUDY    -2  -8  78 CALM      30.43F
ORTONVILLE     CLOUDY    -4  -9  77 CALM      30.43F
MADISON        CLOUDY     1  -4  78 CALM      30.44F
WILLMAR        FAIR       1  -2  85 CALM      30.44F
$$
MNZ033>034-036-042>043-049>051-058-059-101600-
   Central Minnesota

CITY           SKY/WX    TMP DP  RH WIND       PRES   REMARKS
ST CLOUD       PTCLDY     1  -4  79 N5        30.45F WCI  -9
PAYNESVILLE    CLOUDY     0  -4  86 CALM      30.43F
AITKIN         MIX PCPN   5  -6  61 CALM      30.41F
PINE RIVER     CLOUDY     0  -6  78 CALM      30.43F
BRAINERD       CLOUDY     0  -4  83 SW7       30.42F WCI -13
LONG PRAIRIE   CLOUDY     0  -6  78 CALM      30.41F
LITTLE FALLS   CLOUDY     0  -6  78 CALM      30.44F
LITCHFIELD     CLOUDY     3   0  85 CALM      30.45F
BUFFALO        CLOUDY     3  -1  82 NW3       30.46F
MAPLE LAKE     PTCLDY     3   0  86 NW3       30.46F
HUTCHINSON     CLOUDY     4   0  82 CALM      30.46S
$$
MNZ037-044-045-052-053-101600-
   East Central Minnesota

CITY           SKY/WX    TMP DP  RH WIND       PRES   REMARKS
PRINCETON      CLOUDY     3   0  85 CALM      30.45F
MORA           PTCLDY     1  -4  78 W3        30.46F
CAMBRIDGE      CLOUDY     3  -2  78 CALM      30.45F
RUSH CITY      PTCLDY     5   0  78 CALM      30.46F
MOOSE LAKE     CLOUDY     5  -4  66 N3        30.42F
HINCKLEY       CLOUDY     5   3  92 S3        30.45S
CLOQUET        CLOUDY     1  -6  71 NW5       30.41F WCI  -8
MCGREGOR       CLOUDY     3  -4  72 CALM      30.43F
$$
MNZ071>073-080-081-089-090-097-098-101600-
   Southwest Minnesota

CITY           SKY/WX    TMP DP  RH WIND       PRES   REMARKS
MONTEVIDEO     CLOUDY     0  -6  78 CALM      30.46F
GRANITE FALLS  CLOUDY     3  -2  79 CALM      30.48R
CANBY          CLOUDY     2  -3  81 CALM      30.43F
MARSHALL       FLURRIES   2  -3  80 E5        30.43F WCI  -8
REDWOOD FALLS  CLOUDY     3  -3  76 E5        30.45F WCI  -6
OLIVIA         CLOUDY     3   0  85 CALM      30.44F
PIPESTONE      LGT SNOW   7   3  85 SE12      30.33F WCI  -9
WINDOM         LGT SNOW   7   1  78 MISG      30.41F
WORTHINGTON    FLURRIES   7   3  84 E12       30.37F WCI  -8
JACKSON        LGT SNOW   7   3  85 E9        30.39F WCI  -7
TRACY          LGT SNOW   5   2  86 E6        30.41F WCI  -6
SLAYTON        LGT SNOW   4   1  88 E8        30.38F WCI  -9
$$
MNZ065>067-074>077-082>085-091>093-101600-
   South Central Minnesota

CITY           SKY/WX    TMP DP  RH WIND       PRES   REMARKS
MANKATO        CLOUDY     4  -1  80 CALM      30.46F
NEW ULM        CLOUDY     3  -2  78 CALM      30.46F
ST JAMES       CLOUDY     5   0  78 NE3       30.46F
FAIRMONT       FLURRIES   7   3  84 NE7       30.44F WCI  -5
GLENCOE        MOCLDY     5   3  89 CALM      30.46F
FARIBAULT      PTSUNNY    5   1  85 CALM      30.46F
OWATONNA       CLOUDY     5   0  78 CALM      30.45S
WASECA         CLOUDY     5   1  85 CALM      30.47F
ALBERT LEA     CLOUDY    10   3  72 CALM      30.45R
$$
MNZ078>079-086>088-094>096-101600-
   Southeast Minnesota

CITY           SKY/WX    TMP DP  RH WIND       PRES   REMARKS
ROCHESTER      CLOUDY     4   1  88 CALM      30.44S
RED WING       CLOUDY     9   1  72 CALM      30.47F
STANTON        MOSUNNY    7   2  80 CALM      30.46S
DODGE CENTER   MOSUNNY    3   0  85 CALM      30.43F
WINONA           N/A     10   5  79 SW3       30.50F
AUSTIN         CLOUDY     7   1  78 CALM      30.45R
PRESTON        CLOUDY     5   1  81 CALM      30.46S
$$
ABBREVIATIONS USED IN REMARKS
   TC - TEMPERATURES IN CELSIUS
  WCI - WIND CHILL INDEX
   HX - HEAT INDEX
  VSB - VISIBILITY
$$




USA.gov is the U.S. government's official web portal to all federal, state and local government web resources and services.